Theta_e
302 302 302 302 303 303 302 303 304 304 303 305 306 306 306 306 306 305 306 306 306 307 306 306 306 306 306 306 305 304 304 304 304 303 304 304 303 303 303 302 300 300 300 301 301 301 302 302 303 303 302 304 304 304 305 305 307 305 304 306 306 306
301 301 301 302 302 302 302 303 304 303 303 303 303 304 304 303 303 303 303 303 304 304 303 303 302 302 303 302 302 302 303 304 304 303 302 302 300 300 299 298 299 298 298 298 299 299 298 299 299 299 299 300 299 299 301 303 303 302 302 303 304 304
299 300 299 299 298 299 301 302 302 302 302 302 302 302 301 301 301 301 301 302 302 301 301 302 301 301 301 301 301 301 301 300 300 300 300 297 297 297 296 296 296 296 296 296 296 296 296 297 299 299 299 298 297 299 299 299 301 299 299 299 301 302
299 298 299 297 298 299 299 301 301 300 300 299 300 300 300 300 300 300 300 299 300 300 300 300 299 299 299 298 298 298 297 295 295 295 295 296 296 295 295 295 295 295 295 295 295 297 297 297 300 299 299 299 298 300 303 302 300 301 301 300 301 300
297 297 298 298 298 299 298 299 300 299 298 298 297 298 297 298 298 298 299 299 299 298 298 297 295 295 295 294 294 294 293 293 293 293 293 293 293 293 294 294 294 294 293 294 295 298 298 299 298 298 298 299 299 299 300 300 299 300 299 299 300 300
296 298 298 299 299 298 299 299 299 298 297 297 296 295 295 296 296 297 297 297 297 296 296 295 293 293 293 293 292 291 291 292 292 292 292 293 293 294 293 294 292 292 292 293 295 296 297 297 298 297 297 299 298 299 299 299 299 299 299 299 299 299
297 298 299 299 298 297 297 298 297 296 295 294 294 294 294 294 295 295 296 295 295 294 294 293 292 291 291 291 290 290 290 290 290 291 292 291 291 291 290 291 291 291 292 293 294 295 295 295 296 296 296 297 297 297 297 298 298 298 298 298 298 295
298 298 298 298 297 296 296 295 295 294 294 294 293 293 292 293 293 294 296 295 295 294 292 291 291 290 288 288 288 289 289 289 289 289 289 289 291 289 290 290 289 291 292 291 290 291 291 291 292 293 294 295 295 295 296 296 296 296 296 296 296 296
298 298 297 297 295 294 294 294 294 293 293 292 292 292 292 293 294 294 294 294 292 292 290 289 288 288 288 288 288 289 289 289 288 288 289 288 289 288 288 288 289 288 289 289 290 290 289 290 290 291 290 291 292 293 293 293 293 293 294 294 294 294
297 297 296 295 294 294 293 292 293 293 292 291 291 291 292 294 293 293 293 292 291 289 289 288 287 287 288 288 288 288 288 288 287 287 287 287 287 288 288 288 288 287 288 288 289 289 289 289 288 287 288 288 289 290 289 290 291 291 292 292 293 293
297 296 295 294 293 293 292 292 292 292 291 290 289 289 290 291 292 291 290 289 289 288 287 288 287 287 287 286 286 287 287 287 286 286 286 285 286 288 286 287 287 287 287 286 287 288 288 290 290 289 289 288 287 286 287 288 288 288 288 289 290 291
297 296 295 294 294 293 292 292 291 291 290 290 289 289 289 290 290 290 289 289 288 288 287 287 286 287 286 287 287 286 286 286 285 285 286 286 286 286 287 287 287 286 287 288 287 286 288 290 290 290 292 293 288 287 288 288 287 287 287 288 289 289
297 296 295 294 293 293 293 292 291 291 290 289 288 288 288 289 289 288 288 288 287 286 286 286 286 286 287 286 286 286 286 286 286 286 286 286 286 286 286 286 286 286 286 286 286 287 288 289 290 291 294 295 295 288 286 286 287 286 287 287 287 287
297 295 294 293 293 292 292 292 291 290 289 289 288 289 289 290 289 289 288 287 287 286 286 286 286 286 286 286 285 285 285 285 285 285 285 285 285 286 285 285 284 285 284 286 284 284 286 286 289 293 293 293 294 293 288 286 286 286 286 286 286 287
296 295 293 292 292 292 291 291 290 289 289 288 288 289 289 289 289 288 288 287 287 286 286 286 286 286 286 285 285 284 284 284 283 283 283 284 283 282 284 282 283 283 283 283 283 284 285 285 289 291 292 292 292 292 290 286 285 285 286 286 286 286
294 293 292 291 290 290 289 289 289 288 287 287 287 288 288 288 287 287 286 286 285 285 285 285 285 284 284 283 283 282 282 282 282 281 281 282 281 281 281 281 282 282 282 282 282 283 284 285 287 291 291 291 291 292 291 285 285 285 285 285 286 286
292 290 289 289 289 288 288 288 288 287 287 287 288 287 287 286 286 285 285 284 284 284 284 284 283 283 282 281 280 280 280 280 280 280 281 281 281 282 283 283 283 283 282 281 281 282 284 285 288 290 291 291 291 291 290 285 284 284 284 285 285 285
291 290 289 288 288 288 288 288 287 287 286 287 287 286 286 285 285 284 283 283 283 283 283 282 281 281 280 280 279 279 280 280 279 280 281 281 282 282 281 282 280 282 283 283 283 282 283 284 288 289 290 290 291 291 287 284 283 283 284 284 284 284
290 288 288 288 287 287 287 287 286 286 286 286 285 285 284 284 283 283 283 282 282 282 281 281 280 279 279 279 279 279 280 280 281 281 281 281 282 282 282 281 281 282 282 282 282 282 283 283 285 288 289 289 290 289 284 283 282 283 283 283 284 284
288 287 288 287 286 286 286 286 286 286 285 284 284 283 282 282 282 281 281 281 281 280 280 280 279 278 278 277 279 279 278 279 278 278 280 279 280 281 281 281 281 281 282 282 282 282 282 283 284 287 288 289 290 289 285 283 282 282 282 283 284 284
287 286 286 286 285 285 285 285 285 285 284 283 282 282 281 281 280 280 280 280 279 279 279 278 278 277 277 277 277 278 277 278 278 280 278 279 278 280 281 282 281 281 281 281 281 282 282 282 283 286 288 289 289 288 283 283 282 282 282 283 283 284
286 285 285 284 284 284 285 285 284 283 283 282 281 280 279 279 279 278 279 279 279 279 277 276 277 276 275 274 275 275 276 277 278 277 277 278 279 279 279 280 280 279 280 280 280 281 280 281 282 282 288 289 289 290 286 283 281 282 283 283 283 283
284 283 283 283 283 283 284 284 283 282 281 280 279 278 278 278 278 278 278 278 277 276 276 275 275 274 274 274 275 275 276 276 276 276 275 276 278 276 277 277 278 279 280 279 278 280 279 279 281 282 287 288 289 289 288 282 282 282 282 282 283 283
282 281 281 281 282 283 283 283 282 280 279 278 277 276 276 276 276 276 276 275 274 274 274 273 274 275 274 275 275 273 274 275 276 276 274 275 275 275 276 275 278 279 280 281 278 278 280 281 282 281 285 287 288 288 289 285 283 284 283 282 283 283
280 280 279 280 280 281 282 281 279 278 277 276 276 276 276 276 275 275 275 274 273 273 273 273 273 274 274 273 274 273 273 274 273 274 275 275 275 277 277 278 278 278 279 279 280 279 280 280 281 284 283 285 287 287 288 289 287 288 284 282 282 282
279 278 278 278 279 280 280 280 278 277 275 275 275 275 274 274 273 273 272 272 272 272 272 273 272 272 272 273 273 273 273 273 274 276 278 279 279 279 278 277 277 277 277 277 278 279 279 280 280 281 283 283 285 285 286 286 285 285 283 282 281 282
278 277 277 277 277 278 277 277 277 276 274 275 274 272 271 272 271 271 270 270 271 271 271 270 270 272 272 271 272 273 274 274 273 274 276 276 276 275 275 275 276 276 276 276 276 277 278 278 279 279 281 282 283 284 284 284 284 284 285 282 282 283
276 276 275 275 276 276 277 276 276 274 274 274 272 271 271 270 269 269 269 269 269 269 270 270 271 271 271 273 274 274 273 273 272 273 273 273 272 271 273 273 274 274 275 275 275 275 276 277 277 277 278 280 280 281 282 283 283 283 283 283 283 284
275 274 274 274 276 276 276 275 274 273 273 271 271 270 270 269 269 269 269 268 269 269 270 270 271 271 273 272 271 271 272 272 271 270 272 271 270 269 270 272 273 273 273 273 274 274 275 275 276 276 277 278 279 280 281 281 281 282 282 282 282 283
275 274 274 274 276 276 275 274 272 271 270 269 269 267 267 268 268 267 267 266 268 269 268 267 272 270 268 269 269 270 270 270 269 269 270 270 270 269 269 270 270 271 272 272 273 273 273 274 275 275 276 278 279 279 279 279 280 280 280 280 281 281
275 274 274 274 275 275 273 272 271 270 268 268 266 265 265 266 267 266 266 267 267 266 269 268 268 268 267 268 268 268 269 269 269 269 268 268 269 270 270 269 270 271 269 271 272 273 273 275 275 276 280 279 280 278 278 278 278 278 279 279 281 280
274 273 273 274 275 274 272 271 269 268 267 266 264 264 263 264 265 265 265 266 266 265 266 266 267 267 267 266 267 268 268 273 274 274 270 268 276 278 278 278 272 273 273 273 273 274 275 275 276 279 279 279 280 280 280 280 280 280 279 280 281 280
273 272 272 273 274 273 272 270 268 266 264 264 264 263 263 263 265 266 265 265 264 265 265 265 266 267 268 268 268 267 267 266 269 274 276 276 276 276 276 277 278 278 278 276 274 274 278 277 278 278 278 279 279 279 279 280 280 280 280 281 279 277
272 271 271 273 273 272 270 268 266 264 263 262 262 262 262 263 264 264 263 263 264 265 266 266 267 268 268 266 266 265 265 265 264 265 273 275 273 274 276 276 277 276 276 276 276 274 273 275 277 278 278 278 278 278 278 279 279 280 280 280 280 276
272 272 272 271 270 269 268 266 264 263 261 261 261 260 260 261 261 262 262 263 264 266 267 267 267 266 264 263 263 263 264 263 264 263 263 267 272 273 274 275 274 274 275 275 275 276 276 276 277 277 277 277 277 277 277 278 278 278 279 278 275 274
271 271 270 269 268 267 266 264 262 261 261 260 260 260 259 259 260 261 262 264 265 264 264 264 265 266 266 265 264 263 262 263 263 261 263 264 264 265 269 272 272 273 273 274 275 275 276 276 276 276 276 276 276 276 276 277 274 276 277 276 272 273
269 268 268 268 266 266 264 262 261 260 260 259 259 259 259 259 261 261 264 264 264 263 264 265 264 264 263 263 262 261 262 261 263 265 264 263 263 263 264 264 265 269 272 271 272 274 275 274 274 274 274 275 275 275 276 274 270 269 269 270 271 271
268 267 267 265 265 264 262 260 260 260 260 259 259 259 260 261 263 263 264 263 263 263 263 262 261 262 261 261 261 261 263 263 263 263 262 263 263 263 263 263 264 265 270 272 272 273 273 273 273 273 273 273 273 274 274 267 266 266 267 268 269 269
Wind_Speed
4 5 5 5 6 6 5 5 5 5 5 5 6 6 6 5 5 4 4 4 3 3 3 3 3 2 2 1 1 2 2 2 2 2 2 3 3 2 2 2 3 2 3 2 3 4 3 3 4 4 3 1 2 3 4 3 4 4 4 5 5 5
5 5 5 5 5 5 5 5 5 5 5 6 6 6 6 6 5 5 5 4 4 4 4 4 4 3 3 3 2 1 1 0 1 1 2 2 3 4 4 4 3 3 3 3 3 3 3 3 3 3 4 4 3 3 3 3 2 2 3 5 4 4
5 5 5 5 5 5 5 5 5 5 5 5 5 6 6 5 4 5 4 4 4 4 4 4 4 3 3 3 2 1 2 3 3 3 3 3 3 3 3 3 4 4 4 4 4 4 4 4 5 4 3 3 3 3 3 3 3 4 4 4 5 4
5 5 5 5 5 5 5 5 5 5 5 4 5 6 5 5 5 5 4 4 4 5 5 5 4 4 4 4 3 3 4 4 4 4 4 3 2 3 3 3 3 4 4 4 4 4 4 4 5 5 6 5 4 4 3 3 4 5 5 4 5 4
5 5 5 5 5 5 5 5 5 5 5 5 5 6 5 5 5 4 4 5 5 5 5 5 4 4 4 4 4 4 4 4 4 4 4 3 3 3 2 3 3 4 4 4 5 5 4 4 4 5 5 5 5 5 4 4 4 4 4 5 6 5
5 5 5 5 5 5 5 5 5 5 5 5 5 5 5 5 4 5 5 5 6 5 6 5 4 4 4 4 4 4 4 4 3 3 2 2 2 1 2 2 3 4 4 3 4 4 4 4 4 3 3 4 5 6 6 6 5 5 6 6 6 6
6 5 5 5 5 5 5 5 5 5 5 5 5 4 4 4 4 5 5 5 6 6 6 5 5 6 5 4 4 4 4 3 3 2 1 2 3 3 3 3 3 2 1 1 1 2 2 3 4 4 4 4 4 4 5 5 5 6 6 6 7 7
5 5 5 5 5 5 5 5 5 5 5 5 4 4 4 4 4 5 6 6 7 6 7 6 6 5 4 4 4 4 4 4 4 4 3 3 2 3 3 3 3 1 0 0 1 1 2 2 2 3 3 3 4 4 5 5 6 6 6 6 6 7
6 6 6 5 5 5 5 5 5 5 5 5 4 4 4 4 5 5 6 7 7 7 6 5 4 3 3 3 4 4 4 4 4 4 3 2 1 2 3 3 3 3 2 2 1 1 2 3 2 2 3 3 3 4 4 5 5 6 6 6 7 7
6 7 6 6 5 5 5 5 5 5 5 5 4 4 4 5 6 6 7 7 6 6 5 4 3 4 4 4 4 4 4 4 4 4 3 3 3 3 2 3 2 3 2 3 3 3 3 4 4 4 4 4 4 4 4 4 6 7 7 6 7 7
7 7 7 7 6 6 5 5 6 5 5 4 4 4 4 5 7 7 7 6 6 4 4 4 4 4 4 4 4 5 5 5 4 4 3 3 4 3 3 3 4 4 4 4 4 4 4 4 4 4 3 4 4 4 4 5 6 6 7 8 8 8
8 8 7 7 7 7 6 6 5 5 5 5 4 4 4 6 7 8 7 6 5 4 4 4 5 5 4 5 6 6 5 5 4 4 4 5 4 5 4 5 5 5 5 5 5 4 4 4 3 5 7 6 4 4 5 6 6 6 7 8 9 10
8 8 8 7 7 7 7 6 6 6 6 5 4 4 4 6 8 7 7 6 4 4 4 4 5 5 7 5 5 5 6 5 5 5 5 5 5 5 5 5 5 5 4 5 5 5 5 4 4 8 9 9 8 5 4 5 7 6 7 7 8 10
10 10 9 8 7 7 7 8 6 6 6 4 4 4 5 8 8 8 7 6 5 5 4 4 5 7 6 7 7 6 5 5 6 6 5 5 6 5 4 5 4 4 4 4 4 4 5 5 6 10 9 9 8 8 6 5 6 7 7 8 9 9
9 10 9 8 8 8 7 8 8 7 6 5 4 4 7 8 8 8 8 6 5 5 5 5 7 7 7 6 6 5 5 5 5 6 5 5 4 4 4 4 4 4 4 3 4 5 6 5 6 9 10 11 10 10 8 6 6 7 8 8 9 9
8 8 8 8 7 7 6 7 8 7 5 5 4 7 8 9 8 8 7 6 5 4 5 6 6 6 5 4 4 4 4 4 4 4 3 3 4 4 4 4 4 4 4 4 4 5 6 7 8 11 12 12 12 11 8 5 5 6 7 8 9 9
9 9 9 8 9 8 9 8 7 7 5 4 8 8 9 8 8 7 6 6 4 5 5 6 5 5 4 4 4 3 4 4 3 4 3 3 4 4 5 5 6 5 5 5 4 4 6 7 12 13 13 14 14 15 10 5 6 6 7 8 7 8
13 12 10 7 9 7 7 9 7 7 7 6 9 8 8 7 7 6 5 5 4 5 5 5 4 4 3 3 3 3 4 3 3 4 4 4 4 4 4 5 4 5 6 6 5 5 6 7 11 13 13 14 13 14 8 6 7 7 8 9 8 8
10 10 10 8 8 9 8 7 7 8 8 8 8 8 7 7 7 6 5 5 4 4 4 4 3 3 3 2 3 4 4 5 5 5 4 5 5 5 5 4 4 5 6 6 5 6 6 6 9 12 13 13 14 10 7 6 6 7 8 9 9 8
9 8 10 10 8 7 7 7 8 9 9 9 7 8 7 7 7 5 4 4 4 4 3 3 3 3 3 3 4 4 4 4 3 3 3 4 5 5 5 5 5 5 5 5 6 6 7 7 7 10 12 13 13 10 8 7 7 8 8 10 9 8
10 10 9 10 10 7 7 8 9 10 10 8 7 7 8 6 5 4 4 4 4 3 3 3 3 3 3 4 3 3 4 4 3 4 3 4 4 5 5 5 5 5 5 5 6 8 7 7 7 8 10 12 11 8 6 6 6 8 9 10 11 10
12 10 9 9 8 7 8 8 9 10 10 8 6 8 7 5 4 3 3 4 4 3 3 3 4 3 4 3 4 3 3 3 3 4 3 4 4 4 4 4 5 5 5 5 5 5 5 6 7 5 9 11 12 12 7 5 6 8 11 11 11 11
9 10 8 6 6 7 7 8 10 10 8 7 8 7 4 3 3 3 3 4 4 4 3 3 4 4 4 3 3 3 3 3 4 4 4 4 4 3 4 4 4 4 5 4 4 5 5 4 5 7 10 11 13 14 12 7 7 7 8 9 11 10
10 10 8 5 6 6 7 9 11 9 8 8 7 4 3 3 3 3 3 3 3 3 3 3 3 3 2 3 2 3 4 4 4 4 4 4 3 4 4 5 5 6 6 5 4 4 5 5 6 6 10 14 15 14 16 9 8 8 8 9 9 11
10 9 7 5 5 5 6 10 11 9 7 8 5 3 3 3 3 3 3 3 3 2 2 2 2 3 2 2 3 2 3 3 3 4 3 3 4 4 4 5 7 7 8 8 7 5 5 6 7 11 10 13 16 17 16 16 10 16 11 10 12 12
9 9 7 5 5 5 5 9 11 8 8 6 4 3 3 3 3 3 3 2 1 1 1 1 2 2 1 1 3 3 2 3 3 3 3 4 4 5 6 7 7 7 7 9 10 9 7 6 7 10 13 12 17 18 18 19 21 21 13 12 11 12
11 10 8 6 6 5 5 5 11 10 9 5 3 2 3 2 3 2 2 1 1 0 1 2 2 0 1 2 1 2 2 3 3 3 4 3 5 5 6 6 5 6 6 7 9 10 10 8 8 8 10 14 14 18 21 23 24 24 23 15 11 12
9 10 10 7 4 5 5 5 6 10 7 5 3 3 2 3 3 2 2 1 0 0 0 1 1 1 2 1 2 2 3 2 2 2 4 5 5 4 5 5 5 6 6 7 8 9 10 10 8 9 9 9 10 13 20 24 23 23 22 19 15 20
10 9 9 9 5 5 6 7 6 6 5 4 3 2 2 2 2 2 1 1 0 1 1 2 2 3 2 2 2 2 1 2 2 3 3 4 4 3 3 4 5 6 7 7 8 9 11 10 9 9 9 9 11 11 11 13 13 18 19 13 10 13
10 10 9 9 7 6 6 6 6 6 5 4 3 2 2 2 2 2 1 1 1 1 2 3 4 3 2 3 3 3 3 3 2 3 4 3 5 4 4 3 4 6 6 7 8 9 10 10 9 8 10 13 12 12 10 11 12 11 10 11 11 12
10 9 9 8 7 7 7 7 6 5 5 4 3 2 2 2 1 1 1 1 2 2 2 1 1 2 3 3 3 3 4 4 5 3 2 4 2 2 3 3 4 4 3 4 6 9 11 12 12 11 16 17 20 18 15 13 12 13 13 16 26 19
9 10 9 8 7 7 8 7 6 5 4 3 2 2 2 2 2 2 2 3 3 2 1 1 1 2 2 3 3 4 4 5 7 4 1 2 5 7 7 7 3 5 5 5 3 3 7 10 13 23 27 26 26 27 27 25 25 24 21 24 30 21
7 8 8 8 7 7 7 7 6 5 3 2 1 1 1 1 3 4 3 3 1 1 0 0 1 1 2 3 4 4 5 5 6 6 4 4 5 7 8 8 9 10 10 8 7 7 14 16 19 22 24 26 27 29 30 29 28 27 26 26 19 13
9 10 10 8 7 8 8 7 6 5 3 2 1 1 1 0 3 5 3 3 0 1 0 0 1 2 2 3 3 4 4 6 4 3 3 6 7 8 8 7 10 12 12 13 13 12 9 14 19 21 22 24 26 27 28 28 29 28 27 25 22 11
8 7 7 8 8 8 7 7 6 5 3 2 2 2 3 3 3 4 3 1 1 1 1 1 1 1 1 2 4 4 4 4 6 4 1 1 6 6 5 8 11 12 13 14 15 16 15 17 19 23 23 23 25 26 25 27 28 26 25 23 13 9
7 7 8 8 8 8 7 7 6 5 4 3 3 3 4 3 3 2 1 1 1 0 0 1 0 1 2 3 2 2 2 3 3 3 6 6 2 1 3 6 10 13 15 14 16 15 16 18 21 22 23 24 23 23 24 24 19 22 21 16 10 10
8 7 8 9 9 8 8 8 6 4 4 4 4 4 4 4 3 2 2 3 1 1 1 0 1 2 2 1 1 1 2 2 3 3 3 4 7 8 8 6 5 8 14 13 11 13 16 18 20 21 22 22 21 22 23 22 13 12 12 11 9 10
8 8 8 8 7 8 8 7 6 6 5 4 4 4 4 4 4 3 3 2 2 0 1 1 2 1 1 0 1 1 1 2 2 3 3 3 3 4 6 6 5 5 9 15 14 15 17 18 18 19 19 18 19 19 20 11 10 10 10 10 9 9
Wind_Direction
113 98 94 83 82 88 98 96 89 79 77 107 120 125 127 130 124 115 105 108 107 124 130 125 125 110 124 111 80 59 55 25 18 24 15 6 4 25 13 12 9 3 344 336 318 325 320 322 320 321 314 286 262 263 248 235 207 219 244 250 248 259
107 109 104 96 93 95 100 103 93 86 86 88 94 94 98 97 104 112 108 102 99 85 80 72 79 75 71 72 76 65 87 90 55 37 21 0 23 24 27 25 7 347 341 329 340 331 326 323 310 327 326 331 320 303 291 276 263 251 245 251 230 234
95 84 89 90 87 83 80 85 93 91 82 85 95 106 99 92 84 88 95 99 104 109 111 111 97 88 85 77 73 61 54 54 55 47 46 42 17 23 15 22 17 16 5 2 2 3 353 349 336 329 330 329 318 312 304 307 316 303 290 278 269 253
103 94 88 90 93 87 85 86 88 80 80 87 85 86 94 99 83 90 86 81 89 89 85 81 71 67 63 63 68 64 58 50 48 45 37 45 347 32 13 31 32 21 14 6 1 7 5 359 356 353 0 349 342 328 317 303 289 278 274 273 275 274
126 125 120 111 105 102 95 87 88 92 91 82 82 86 80 91 97 96 101 97 88 83 80 74 67 72 75 73 70 65 58 47 38 41 41 22 5 2 29 23 41 41 27 18 7 5 4 357 349 346 349 345 344 335 325 325 321 305 299 293 280 279
119 114 110 101 100 100 95 94 91 87 83 84 86 91 92 89 91 90 88 87 91 92 83 86 82 66 68 76 70 66 55 46 41 46 31 12 6 351 330 29 63 57 48 28 7 358 349 342 325 321 321 318 322 319 314 315 312 306 300 294 291 288
131 135 126 115 108 101 99 98 97 88 79 81 90 88 93 94 100 105 107 105 97 85 82 72 64 65 60 68 63 60 58 49 47 40 47 30 16 14 24 4 49 72 79 77 13 321 325 322 333 337 334 327 324 316 313 313 310 305 298 291 290 290
138 119 114 109 107 109 102 97 95 91 78 64 75 89 77 73 82 94 98 95 89 79 71 63 60 61 64 66 63 66 63 57 50 44 29 50 29 1 15 38 8 39 315 222 231 226 254 263 269 275 279 284 291 292 291 288 286 287 288 288 287 285
138 131 116 114 110 106 110 110 105 100 95 79 65 72 84 81 82 82 86 87 83 80 71 71 78 83 82 77 72 63 59 57 52 50 32 10 39 42 23 11 22 350 26 334 347 297 277 285 288 292 298 305 307 305 307 305 301 294 291 284 280 278
137 130 126 118 114 101 91 89 96 105 107 106 91 79 78 84 90 87 87 86 86 89 102 113 111 91 74 67 64 63 59 56 49 38 19 36 36 37 28 10 15 333 359 327 332 311 315 319 321 317 311 305 300 303 298 298 295 293 288 284 278 275
151 141 134 134 126 123 122 114 107 96 86 84 83 77 82 97 98 93 92 92 93 100 107 97 81 71 69 68 66 57 49 46 39 31 33 34 32 18 17 12 15 6 357 352 349 340 336 333 314 296 290 294 300 303 301 298 298 298 299 296 292 285
150 146 140 140 138 136 132 120 111 108 108 102 94 89 86 97 97 101 98 91 89 84 80 78 74 74 72 58 52 46 42 38 27 26 25 23 20 13 5 10 4 11 360 352 345 344 338 322 308 299 291 283 275 287 292 295 290 289 286 290 292 290
152 145 145 149 142 143 132 122 117 111 106 108 111 105 108 103 98 92 90 84 77 71 66 67 64 65 55 48 48 39 35 25 21 23 20 16 14 8 359 3 0 356 350 345 336 332 326 316 308 302 302 301 293 282 282 284 290 287 285 282 284 286
161 153 151 145 140 133 129 127 124 115 115 119 122 123 107 95 92 90 83 77 68 62 60 59 62 57 49 42 34 29 25 23 27 22 14 13 10 358 358 0 348 341 341 339 338 328 316 314 312 313 316 316 313 305 288 277 279 285 281 282 281 283
159 146 142 141 139 130 133 129 122 125 132 130 158 124 94 87 85 84 76 67 65 57 54 55 57 56 48 39 31 24 25 31 28 20 12 7 349 360 9 339 352 338 343 356 339 325 318 314 315 319 317 315 311 305 296 277 270 274 278 277 278 280
134 134 137 132 123 117 118 119 121 128 138 146 129 96 86 87 78 79 77 70 65 58 57 58 57 54 46 39 34 28 33 38 26 5 344 356 0 4 345 340 341 337 342 339 332 322 319 314 315 317 315 313 311 309 306 281 279 274 273 275 278 280
126 123 124 129 130 125 117 113 121 126 118 121 95 83 87 83 89 83 81 75 66 60 57 60 61 57 45 37 36 38 39 37 16 10 348 5 357 357 347 342 342 334 331 329 327 321 313 304 306 312 312 313 313 312 317 301 295 288 282 279 275 277
152 146 140 135 127 128 126 132 136 120 112 98 93 91 88 93 90 87 82 76 66 66 62 66 64 57 49 42 36 45 34 31 18 1 340 360 349 348 347 334 337 325 319 311 312 306 292 288 292 297 298 299 299 304 307 303 296 293 289 286 284 277
130 131 127 128 130 131 133 131 123 117 110 98 93 93 94 91 87 83 83 79 71 67 68 70 71 66 48 38 44 37 22 12 359 352 354 358 344 338 330 311 301 291 291 290 290 288 281 282 284 287 290 292 296 300 298 295 291 288 286 284 284 280
108 114 122 123 120 126 128 126 124 117 108 103 99 99 94 89 84 83 84 83 78 70 67 70 66 65 39 38 32 19 2 353 345 329 340 344 321 316 298 291 286 282 277 283 284 276 283 287 286 287 292 293 292 290 292 295 297 291 291 290 287 284
120 120 115 117 122 129 124 123 120 112 107 105 104 99 95 86 86 83 85 81 78 68 59 64 53 45 33 30 8 6 352 335 317 299 321 308 289 281 281 281 287 289 287 276 274 278 278 287 296 297 294 297 296 296 288 289 292 297 298 301 301 300
115 113 120 124 130 127 122 120 112 107 108 106 105 95 90 90 86 80 71 70 66 62 42 39 50 27 22 5 348 346 326 303 308 299 300 292 276 269 282 289 289 289 291 288 286 292 283 296 305 311 314 313 319 322 311 284 295 297 299 301 302 306
109 116 118 118 116 114 115 116 110 107 107 108 99 91 91 83 69 63 64 68 64 55 37 33 37 16 348 337 329 319 314 305 290 290 293 285 286 289 302 305 304 304 306 307 306 303 308 299 311 323 330 337 337 333 332 315 296 284 286 293 300 300
104 101 89 78 89 104 114 115 111 111 111 103 96 100 81 69 63 56 58 65 54 50 27 33 10 355 331 319 330 330 307 290 287 286 285 288 309 330 331 327 329 334 327 328 325 321 320 323 334 338 342 339 336 335 333 326 308 300 299 306 300 304
111 102 99 79 71 87 113 116 113 113 110 104 106 91 78 68 67 54 59 65 55 33 20 6 348 324 325 333 318 296 292 298 315 311 312 342 348 347 351 348 350 348 339 332 335 338 336 337 341 350 344 338 341 339 335 335 344 348 345 327 313 312
109 104 89 80 73 78 104 119 118 118 112 109 100 88 67 67 48 63 61 53 44 11 354 329 308 290 302 310 298 294 283 313 323 332 349 356 347 1 5 359 353 344 342 338 330 331 338 345 346 343 345 344 339 338 342 344 338 333 324 320 306 305
125 116 100 85 80 75 84 102 120 120 115 123 96 89 87 78 62 73 70 45 352 351 280 316 291 270 298 294 302 337 335 347 350 7 336 6 9 20 13 344 346 342 331 332 330 327 329 340 345 337 338 336 335 340 335 330 326 324 324 316 304 296
117 119 115 96 85 86 83 87 107 117 127 116 99 89 93 91 90 94 106 45 316 282 287 335 337 349 302 311 345 345 329 341 344 354 347 19 20 19 4 340 343 342 340 334 330 328 325 330 337 335 332 333 335 329 326 326 325 324 321 314 305 305
129 129 125 119 111 101 95 91 85 92 106 105 97 88 97 103 111 110 111 62 324 334 23 0 351 351 348 7 354 334 341 347 9 18 6 18 11 2 350 354 348 341 339 337 330 325 325 326 331 333 330 334 330 329 328 329 327 326 325 319 308 309
141 140 137 130 133 124 114 104 100 99 94 84 78 55 81 113 108 117 92 15 25 14 31 5 2 7 352 350 2 0 351 350 11 27 357 349 336 352 340 355 345 336 332 331 329 324 323 322 328 335 339 336 336 333 330 325 323 325 323 319 316 312
144 145 139 136 138 132 119 111 111 105 99 85 66 59 87 110 104 113 104 62 66 46 29 342 0 355 359 339 355 349 342 331 327 330 313 298 263 307 330 326 317 309 304 317 325 327 321 323 327 333 332 328 327 325 324 325 327 326 322 319 318 314
146 145 139 137 139 134 130 122 116 101 92 86 72 81 107 125 146 141 124 94 85 76 9 354 351 341 353 352 355 351 350 348 341 297 248 265 315 335 335 335 323 321 323 319 295 294 323 325 322 324 327 327 327 325 323 320 318 317 316 316 317 316
141 135 137 143 144 136 132 125 120 113 95 84 75 89 139 175 155 131 116 110 130 140 159 163 20 338 28 7 11 0 348 351 359 349 323 341 360 354 344 341 343 343 352 352 337 333 328 323 321 323 324 326 327 325 324 323 322 321 321 321 320 317
156 158 152 147 144 142 133 124 127 122 113 107 75 64 99 71 138 133 135 132 176 75 39 337 47 27 43 20 20 7 0 359 8 19 18 52 6 345 352 13 25 16 0 349 341 333 324 326 327 327 328 328 327 325 323 323 323 325 327 328 331 317
159 151 145 142 143 138 136 124 134 131 138 131 124 113 115 103 111 123 121 125 85 59 34 24 30 26 48 43 24 7 11 7 354 357 27 2 2 8 33 40 19 1 353 346 339 334 329 327 330 331 331 330 328 326 326 325 325 327 330 333 332 321
152 148 140 140 145 142 137 128 142 145 148 145 143 132 130 116 115 125 120 106 125 90 327 51 37 60 36 38 30 8 21 352 349 335 331 338 4 78 28 12 357 349 346 342 341 339 338 338 336 334 333 331 330 331 330 331 328 327 332 339 330 323
141 139 143 147 146 145 144 134 150 151 150 144 148 140 134 132 129 122 131 146 171 182 186 101 57 63 39 45 23 37 5 338 325 341 345 349 341 337 339 340 341 342 342 339 340 342 344 340 335 334 333 333 333 334 336 337 331 335 340 344 345 343
144 147 147 147 152 149 146 156 160 158 157 158 151 145 141 139 144 151 159 166 159 153 116 78 71 37 90 88 22 357 331 304 311 325 325 321 321 323 322 322 331 331 330 336 339 342 343 338 336 333 333 333 336 338 345 340 334 333 337 338 338 340